Los Alamitos, CA

12:28 AM PDT on June 26, 2017 (GMT -0700)
Los Alamitos Army Air Field

Weather History for KSLI - March, 2013

Change the Weather History Date:

Wednesday, March 20, 2013

  Actual Average Record
Temperature  
Mean Temperature 58 °F -  
Max Temperature 70 °F 68 °F 84 °F (1997)
Min Temperature 49 °F 54 °F 41 °F (2012)
Degree Days  
Heating Degree Days 6    
Growing Degree Days 8 (Base 50)    
Moisture  
Dew Point 50 °F    
Average Humidity 76    
Maximum Humidity 100    
Minimum Humidity 43    
Precipitation  
Precipitation 0.00 in - - ()
Sea Level Pressure  
Sea Level Pressure 30.05 in    
Wind  
Wind Speed 4 mph (South)    
Max Wind Speed 10 mph    
Max Gust Speed -    
Visibility 8 miles    
Events      
Averages and records for this station are not official NWS values.
T = Trace of Precipitation, MM = Missing Value Source: NWS Daily Summary

Daily Weather History Graph

Daily Weather History Graph

Search for Another Location

Airport or City:

Trip Planner

Search our weather history database for the weather conditions in past years. The results will help you decide how hot, cold, wet, or windy it might be!

Date:

Astronomy

Mar. 20, 2013 Rise Set
Actual Time 6:55 AM PDT 7:04 PM PDT
Civil Twilight 6:30 AM PDT 7:29 PM PDT
Nautical Twilight 6:01 AM PDT 7:58 PM PDT
Astronomical Twilight 5:32 AM PDT 8:27 PM PDT
Moon 12:58 PM PDT (3/20) 2:23 AM PDT (3/20)
Length of Visible Light 12h 58m
Length of Day
12h 08m
First Quarter, 60% of the Moon is Illuminated
Mar 20
First Quarter
Mar 27
Full
Apr 2
Last Quarter
Apr 10
New
Apr 18
First Quarter

Hourly Weather History & Observations

Time (PDT) Temp. Dew Point Humidity Pressure Visibility Wind Dir Wind Speed Gust Speed Precip Events Conditions
12:58 AM 54.1 °F 54.0 °F 99% 30.11 in 10.0 mi ESE 2.3 mph - N/A   Clear
1:58 AM 53.2 °F 53.1 °F 99% 30.09 in 10.0 mi SW 4.6 mph - N/A   Clear
2:58 AM 52.7 °F 52.7 °F 100% 30.07 in 10.0 mi NE 2.3 mph - N/A   Partly Cloudy
3:58 AM 51.8 °F 51.8 °F 100% 30.08 in 10.0 mi NNW 1.2 mph - N/A   Partly Cloudy
4:58 AM 50.0 °F 50.0 °F 100% 30.05 in 7.0 mi SE 3.5 mph - N/A   Clear
5:58 AM 49.3 °F 49.3 °F 100% 30.05 in 9.0 mi ENE 1.2 mph - N/A   Partly Cloudy
6:58 AM 49.5 °F 49.5 °F 100% 30.08 in 5.0 mi West 3.5 mph - N/A   Mostly Cloudy
7:58 AM 53.2 °F 53.2 °F 100% 30.07 in 5.0 mi ENE 2.3 mph - N/A   Mostly Cloudy
8:55 AM 58.5 °F 53.8 °F 84% 30.09 in 4.0 mi Calm Calm - N/A   Haze
9:55 AM 59.5 °F 50.7 °F 73% 30.09 in 4.0 mi Calm Calm - N/A   Haze
10:55 AM 63.7 °F 48.0 °F 57% 30.10 in 4.0 mi Variable 3.5 mph - N/A   Haze
11:58 AM 64.9 °F 50.4 °F 59% 30.10 in 4.0 mi SSW 6.9 mph - N/A   Haze
12:58 PM 67.3 °F 48.7 °F 51% 30.08 in 4.0 mi SSW 5.8 mph - N/A   Haze
1:58 PM 66.7 °F 48.7 °F 52% 30.05 in 5.0 mi South 8.1 mph - N/A   Haze
2:58 PM 67.8 °F 47.1 °F 47% 30.04 in 6.0 mi SW 10.4 mph - N/A   Haze
3:55 PM 68.0 °F 44.6 °F 43% 30.02 in 10.0 mi SW 10.4 mph - N/A   Clear
3:58 PM 68.2 °F 45.0 °F 43% 30.03 in 7.0 mi SW 10.4 mph - N/A   Mostly Cloudy
4:55 PM 68.0 °F 44.6 °F 43% 30.01 in 10.0 mi SSW 10.4 mph - N/A   Clear
4:58 PM 67.5 °F 44.8 °F 44% 30.01 in 10.0 mi SSW 10.4 mph - N/A   Mostly Cloudy
5:58 PM 62.2 °F 48.9 °F 62% 30.01 in 10.0 mi SSW 9.2 mph - N/A   Mostly Cloudy
6:58 PM 59.7 °F 51.6 °F 75% 30.01 in 10.0 mi South 5.8 mph - N/A   Mostly Cloudy
7:58 PM 57.9 °F 54.3 °F 88% 30.01 in 10.0 mi South 4.6 mph - N/A   Mostly Cloudy
8:58 PM 56.8 °F 54.1 °F 91% 29.99 in 10.0 mi SSE 3.5 mph - N/A   Mostly Cloudy
9:58 PM 56.7 °F 54.3 °F 92% 30.00 in 10.0 mi SSE 3.5 mph - N/A   Mostly Cloudy
10:58 PM 57.0 °F 53.6 °F 88% 29.99 in 10.0 mi SE 4.6 mph - N/A   Scattered Clouds
11:58 PM 56.5 °F 53.8 °F 91% 29.97 in 10.0 mi ESE 4.6 mph - N/A   Partly Cloudy